Satellite: NOAA-16
Catalog number: 26536
Epoch time:      11188.26325247
Element set:     357
Inclination:      099.1384 deg
RA of node:       219.2124 deg
Eccentricity:    0.0010229
Arg of perigee:   340.8506 deg
Mean anomaly:     019.2259 deg
Mean motion:   14.12629897 rev/day
Decay rate:        5.3e-07 rev/day^2
Epoch rev:           55619
Checksum:              311

Satellite: NOAA-17
Catalog number: 27453
Epoch time:      11187.77622092
Element set:    0345
Inclination:      098.3779 deg
RA of node:       226.5869 deg
Eccentricity:    0.0012801
Arg of perigee:   092.0707 deg
Mean anomaly:     268.1920 deg
Mean motion:   14.24289649 rev/day
Decay rate:       2.09e-06 rev/day^2
Epoch rev:           46944
Checksum:              337

Satellite: NOAA-18
Catalog number: 28654
Epoch time:      11187.80650873
Element set:    0825
Inclination:      098.9969 deg
RA of node:       139.0033 deg
Eccentricity:    0.0015253
Arg of perigee:   051.5904 deg
Mean anomaly:     308.6645 deg
Mean motion:   14.11488424 rev/day
Decay rate:      -1.01e-06 rev/day^2
Epoch rev:           31569
Checksum:              319

Satellite: NOAA-19
Catalog number: 33591
Epoch time:      11187.80801224
Element set:    0016
Inclination:      098.8270 deg
RA of node:       127.6335 deg
Eccentricity:    0.0013255
Arg of perigee:   282.2397 deg
Mean anomaly:     077.7287 deg
Mean motion:   14.11182569 rev/day
Decay rate:       3.03e-06 rev/day^2
Epoch rev:           12415
Checksum:              296

/EX
SB KEPS @ AMSAT  $ORB11188.M
Orbital Elements  11188.MISC

HR AMSAT ORBITAL ELEMENTS FOR MANNED AND MISCELLANEOUS SATELLITES
FROM WA5QGD FORT WORTH,TX July 7, 2011
Send Subscribe/unsubscribe to KEPS at http://www.amsat.org/mailman/listinfo/kep
BID: ORB11188.M
TO ALL RADIO AMATEURS BT

Satellite: HUBBLE
Catalog number: 20580
Epoch time:      11187.59487351
Element set:     793
Inclination:      028.4708 deg
RA of node:       249.6712 deg
Eccentricity:    0.0003231
Arg of perigee:   329.0398 deg
Mean anomaly:     031.0007 deg
Mean motion:   15.01414384 rev/day
Decay rate:       5.84e-06 rev/day^2
Epoch rev:           96257
Checksum:              294

Satellite: ISS
Catalog number: 25544
Epoch time:      11189.04362252
Element set:     670
Inclination:      051.6415 deg
RA of node:       055.6573 deg
Eccentricity:    0.0010868
Arg of perigee:   302.0364 deg
Mean anomaly:     219.4492 deg
Mean motion:   15.59797364 rev/day
Decay rate:     4.5836e-04 rev/day^2
Epoch rev:           72416
Checksum:              311

Satellite: CO-58
Catalog number: 28895
Epoch time:      11187.59589457
Element set:    0917
Inclination:      097.9630 deg
RA of node:       063.2317 deg
Eccentricity:    0.0017953
Arg of perigee:   156.5676 deg
Mean anomaly:     203.6371 deg
Mean motion:   14.60127534 rev/day
Decay rate:       3.29e-06 rev/day^2
Epoch rev:           30307
Checksum:              341

Satellite: FALCON
Catalog number: 30776
Epoch time:      11187.55095983
Element set:    0123
Inclination:      035.4334 deg
RA of node:       229.2319 deg
Eccentricity:    0.0001805
Arg of perigee:   273.3208 deg
Mean anomaly:     086.7302 deg
Mean motion:   15.04723940 rev/day
Decay rate:       9.26e-06 rev/day^2
Epoch rev:           23796
Checksum:              294

Satellite: MAST
Catalog number: 31126
Epoch time:      11187.92715400
Element set:    0203
Inclination:      097.8921 deg
RA of node:       214.0390 deg
Eccentricity:    0.0095963
Arg of perigee:   109.1774 deg
Mean anomaly:     251.9841 deg
Mean motion:   14.53766701 rev/day
Decay rate:       1.88e-06 rev/day^2
Epoch rev:           22395
Checksum:              297

Satellite: CAPE1
Catalog number: 31130
Epoch time:      11188.55180549
Element set:     217
Inclination:      097.8984 deg
RA of node:       211.3639 deg
Eccentricity:    0.0103548
Arg of perigee:   117.7980 deg
Mean anomaly:     243.3698 deg
Mean motion:   14.52414795 rev/day
Decay rate:        5.2e-07 rev/day^2
Epoch rev:           22359
Checksum:              314

Satellite: COMPASS
Catalog number: 32787
Epoch time:      11187.71729790
Element set:    0032
Inclination:      097.8467 deg
RA of node:       251.1707 deg
Eccentricity:    0.0016889
Arg of perigee:   111.3746 deg
Mean anomaly:     248.9265 deg
Mean motion:   14.82477552 rev/day
Decay rate:       3.70e-06 rev/day^2
Epoch rev:           17245
Checksum:              330

Satellite: AAUSAT2
Catalog number: 32788
Epoch time:      11186.86867418
Element set:    0021
Inclination:      097.8478 deg
RA of node:       250.5686 deg
Eccentricity:    0.0016369
Arg of perigee:   114.2480 deg
Mean anomaly:     246.0464 deg
Mean motion:   14.82665175 rev/day
Decay rate:       4.86e-06 rev/day^2
Epoch rev:           17234
Checksum:              333

Satellite: DO-64
Catalog number: 32789
Epoch time:      11187.68172636
Element set:    0038
Inclination:      097.8562 deg
RA of node:       252.4072 deg
Eccentricity:    0.0016573
Arg of perigee:   110.1455 deg
Mean anomaly:     250.1552 deg
Mean motion:   14.83165014 rev/day
Decay rate:      1.421e-05 rev/day^2
Epoch rev:           17247
Checksum:              296

